Weather observations for the past three days for
Crane Lake - Scotts Seaplane Base
Imperial (Metric)
Date Time (cdt) Wind (mph) Vis. (mi.) Weather Sky Cond. Temperature (ºF) Relative Humidity Wind Chill (°F) Heat Index (°F) Pressure Precipitation (in)
Air Dwpt 6 hour altimeter (in) sea level (mb) 1 hr 3 hr 6 hr
Max. Min.
05 21:53 Calm 10.00 Fair CLR 59 59 100% 30.12 0.0
05 21:33 Calm 10.00 Fair CLR 59 59 100% 30.12 0.0
05 21:13 Calm 7.00 Fair CLR 59 59 100% 30.12 0.0
05 20:53 Calm 7.00 Fair CLR 60.8 60.8 100% 30.11 0.0
05 20:33 Calm 10.00 Fair CLR 62.6 62.6 100% 30.11 0.0
05 20:13 Calm 10.00 Fair CLR 62.6 62.6 100% 30.1 0.0
05 19:53 Calm 10.00 Fair CLR 64.4 62.6 94% 30.1 0.0
05 19:33 Calm 10.00 Fair CLR 64.4 64.4 100% 30.09 0.0
05 19:13 Calm 10.00 Partly Cloudy SCT024 66.2 66.2 100% 30.08 0.0
05 18:53 Calm 10.00 Mostly Cloudy BKN024 69.8 66.2 88% 30.08 0.0
05 18:33 Calm 10.00 Partly Cloudy SCT026 69.8 66.2 88% 30.09 0.0
05 18:13 Calm 10.00 Mostly Cloudy BKN024 69.8 66.2 88% 30.09 0.0
05 17:53 Calm 10.00 Mostly Cloudy BKN020 69.8 66.2 88% 30.09 0.0
05 17:33 Calm 10.00 Overcast OVC018 68 66.2 94% 30.09 0.0
05 17:13 Calm 10.00 Overcast OVC018 68 64.4 88% 30.1 0.0
05 16:53 Calm 10.00 Overcast OVC018 68 64.4 88% 30.11 0.0
05 16:33 Calm 10.00 Overcast OVC018 68 64.4 88% 30.1 0.0
05 16:13 Calm 10.00 Overcast OVC018 68 64.4 88% 30.12 0.0
05 15:53 Calm 10.00 Overcast OVC018 69.8 64.4 83% 30.12 0.0
05 15:33 Calm 10.00 Overcast OVC018 69.8 64.4 83% 30.14 0.0
05 15:13 S 3 10.00 Overcast OVC018 69.8 64.4 83% 30.14 0.0
05 14:33 Calm 10.00 Overcast OVC016 69.8 64.4 83% 30.15 0.0
05 12:53 S 3 10.00 Overcast OVC016 68 64.4 88% 30.16 0.0
05 12:33 SE 3 10.00 Overcast OVC016 68 64.4 88% 30.16 0.0
05 12:13 Calm 10.00 Overcast OVC016 68 64.4 88% 30.16 0.0
05 11:53 S 5 10.00 Overcast OVC018 69.8 64.4 83% 30.14 0.0
05 11:33 Calm 10.00 Overcast OVC018 69.8 64.4 83% 30.14 0.0
05 11:13 Calm 10.00 Overcast OVC018 68 64.4 88% 30.15 0.0
05 10:53 Calm 10.00 Overcast OVC018 69.8 64.4 83% 30.14 0.0
05 10:33 Calm 10.00 Overcast OVC018 68 64.4 88% 30.14 0.0
05 10:13 Calm 10.00 Mostly Cloudy BKN016 68 64.4 88% 30.13 0.0
05 09:53 Calm 10.00 Mostly Cloudy BKN016 68 64.4 88% 30.14 0.0
05 09:33 Calm 10.00 Mostly Cloudy BKN016 66.2 64.4 94% 30.13 0.0
05 09:13 Calm 10.00 Mostly Cloudy SCT014 BKN027 64.4 62.6 94% 30.13 0.0
05 08:53 Calm 10.00 Overcast OVC027 64.4 62.6 94% 30.15 0.0
05 08:33 Calm 10.00 Overcast OVC027 64.4 64.4 100% 30.14 0.0
05 08:13 Calm 10.00 NULL NULL 62.6 62.6 100% 30.14 0.0
05 07:53 Calm 10.00 NULL NULL 62.6 62.6 100% 30.13 0.0
05 07:33 Calm 10.00 NULL NULL 62.6 62.6 100% 30.12 0.0
05 07:13 Calm 10.00 Overcast OVC017 62.6 62.6 100% 30.12 0.0
05 06:53 Calm 7.00 NULL NULL 62.6 62.6 100% 30.1 0.0
05 06:33 Calm 7.00 NULL NULL 62.6 62.6 100% 30.1 0.0
05 06:13 Calm 7.00 NULL NULL 62.6 62.6 100% 30.1 0.0
05 05:53 Calm 10.00 NULL NULL 62.6 62.6 100% 30.1 0.0
05 05:33 Calm 10.00 NULL NULL 62.6 62.6 100% 30.1 0.0
05 05:13 Calm 7.00 NULL NULL 62.6 62.6 100% 30.1 0.0
05 04:53 Calm 7.00 NULL NULL 62.6 62.6 100% 30.1 0.0
05 04:33 Calm 7.00 NULL NULL 62.6 62.6 100% 30.1 0.0
05 04:13 Calm 7.00 NULL NULL 62.6 62.6 100% 30.1 0.0
05 03:53 Calm 7.00 NULL NULL 62.6 62.6 100% 30.1 0.0
05 03:33 Calm 7.00 NULL NULL 62.6 62.6 100% 30.1 0.0
05 03:13 Calm 7.00 NULL NULL 62.6 62.6 100% 30.1 0.0
05 02:53 Calm 7.00 NULL NULL 62.6 62.6 100% 30.1 0.0
05 02:33 Calm 7.00 NULL NULL 62.6 62.6 100% 30.1 0.0
05 02:13 Calm 5.00 Fog/Mist NULL 62.6 62.6 100% 30.1 0.0
05 01:53 Calm 5.00 Fog/Mist NULL 62.6 62.6 100% 30.1 0.0
05 01:33 Calm 7.00 NULL NULL 62.6 62.6 100% 30.1 0.0
05 01:13 Calm 7.00 NULL NULL 62.6 62.6 100% 30.1 0.0
05 00:53 Calm 7.00 Overcast OVC034 62.6 62.6 100% 30.1 0.0
05 00:33 Calm 7.00 Mostly Cloudy BKN032 64.4 64.4 100% 30.1 0.0
05 00:13 Calm 7.00 Partly Cloudy SCT032 64.4 64.4 100% 30.1 0.0
04 23:53 Calm 5.00 Fog/Mist CLR 64.4 64.4 100% 30.09 0.0
04 23:33 Calm 4.00 Fog/Mist CLR 64.4 64.4 100% 30.1 0.0
04 23:13 Calm 3.00 Fog/Mist CLR 64.4 64.4 100% 30.1 0.0
04 22:53 Calm 2.50 Fog/Mist NULL 64.4 64.4 100% 30.1 0.0
04 22:33 Calm 2.00 Fog/Mist NULL 64.4 64.4 100% 30.1 0.0
04 22:13 Calm 3.00 Fog/Mist NULL 64.4 64.4 100% 30.1 0.0
04 21:53 Calm 5.00 Fog/Mist SCT011 OVC023 64.4 64.4 100% 30.1 0.0
04 21:33 Calm 7.00 Overcast BKN011 BKN016 OVC025 64.4 64.4 100% 30.1 0.0
04 21:13 Calm 5.00 Fog/Mist SCT013 OVC023 64.4 64.4 100% 30.09 0.0
04 20:53 Calm 5.00 Fog/Mist OVC021 64.4 64.4 100% 30.09 0.0
04 20:33 Calm 7.00 Overcast OVC019 64.4 64.4 100% 30.08 0.0
04 20:13 Calm 10.00 Overcast OVC019 64.4 64.4 100% 30.07 0.0
04 19:53 Calm 10.00 Overcast OVC019 64.4 64.4 100% 30.07 0.0
04 19:33 Calm 10.00 Overcast OVC019 64.4 64.4 100% 30.06 0.0
04 19:13 Calm 10.00 Overcast OVC019 64.4 64.4 100% 30.06 0.0
04 18:53 Calm 10.00 Overcast OVC017 64.4 64.4 100% 30.06 0.0
04 18:33 Calm 10.00 Overcast OVC015 66.2 64.4 94% 30.06 0.0
04 18:13 Calm 10.00 Overcast OVC013 66.2 64.4 94% 30.06 0.0
04 17:53 Calm 10.00 Overcast OVC015 66.2 64.4 94% 30.06 0.0
04 17:33 Calm 10.00 Overcast OVC015 66.2 64.4 94% 30.06 0.0
04 17:13 Calm 10.00 Overcast OVC015 66.2 64.4 94% 30.05 0.0
04 16:53 Calm 10.00 Overcast OVC013 66.2 64.4 94% 30.05 0.0
04 16:33 Calm 10.00 Overcast OVC013 66.2 64.4 94% 30.05 0.0
04 16:13 Calm 10.00 Overcast OVC013 66.2 64.4 94% 30.05 0.0
04 15:53 Calm 10.00 Overcast OVC015 66.2 64.4 94% 30.05 0.0
04 15:33 Calm 10.00 Overcast OVC015 66.2 64.4 94% 30.04 0.0
04 15:13 Calm 10.00 Overcast OVC011 64.4 64.4 100% 30.05 0.0
04 14:53 Calm 10.00 Overcast OVC011 64.4 62.6 94% 30.06 0.0
04 14:33 Calm 10.00 Overcast OVC011 64.4 62.6 94% 30.06 0.0
04 14:13 Calm 10.00 Overcast OVC011 64.4 62.6 94% 30.04 0.0
04 13:53 Calm 10.00 Overcast OVC011 64.4 62.6 94% 30.04 0.0
04 13:33 Calm 10.00 Overcast OVC011 64.4 62.6 94% 30.04 0.0
04 13:13 Calm 10.00 Overcast OVC011 64.4 62.6 94% 30.04 0.0
04 12:53 Calm 10.00 Overcast OVC011 64.4 62.6 94% 30.04 0.0
04 12:33 Calm 10.00 Overcast OVC011 64.4 62.6 94% 30.04 0.0
04 12:13 N 3 10.00 Overcast OVC011 64.4 62.6 94% 30.04 0.0
04 11:53 Calm 10.00 Overcast OVC009 64.4 62.6 94% 30.04 0.0
04 11:33 Calm 10.00 Overcast OVC009 64.4 62.6 94% 30.03 0.0
04 11:13 Calm 10.00 Overcast OVC009 62.6 62.6 100% 30.04 0.0
04 10:53 Calm 10.00 Overcast OVC009 62.6 62.6 100% 30.03 0.0
04 10:33 Calm 10.00 NULL NULL 62.6 62.6 100% 30.02 0.0
04 10:13 Calm 10.00 NULL NULL 62.6 60.8 94% 30.02 0.0
04 09:53 Calm 10.00 NULL NULL 62.6 60.8 94% 30.02 0.0
04 09:33 Calm 10.00 Overcast OVC008 60.8 60.8 100% 30.01 0.0
04 09:13 Calm 10.00 Overcast OVC008 60.8 60.8 100% 30.01 0.0
04 08:53 Calm 10.00 Overcast OVC008 60.8 60.8 100% 30 0.0
04 08:33 Calm 10.00 Overcast OVC008 60.8 60.8 100% 30 0.0
04 08:13 Calm 10.00 NULL NULL 60.8 60.8 100% 29.99 0.0
04 07:53 Calm 10.00 NULL NULL 59 59 100% 29.99 0.0
04 07:33 Calm 10.00 Overcast OVC012 59 59 100% 29.99 0.0
04 07:13 Calm 10.00 Overcast OVC014 57.2 57.2 100% 29.98 0.0
04 06:53 Calm 10.00 NULL NULL 57.2 57.2 100% 29.98 0.0
04 06:33 Calm 7.00 NULL NULL 55.4 55.4 100% 29.98 0.0
04 06:13 Calm 7.00 NULL NULL 55.4 55.4 100% 29.98 0.0
04 05:53 Calm 7.00 Overcast OVC016 55.4 55.4 100% 29.98 0.0
04 05:33 Calm 7.00 Overcast OVC016 55.4 55.4 100% 29.98 0.0
04 05:13 Calm 7.00 Mostly Cloudy BKN016 53.6 53.6 100% 29.97 0.0
04 04:53 Calm 1.75 Fog/Mist NULL 55.4 55.4 100% 29.96 0.0
04 04:33 Calm 7.00 NULL NULL 55.4 55.4 100% 29.96 0.0
04 04:13 Calm 4.00 Fog/Mist NULL 55.4 55.4 100% 29.95 0.0
04 03:53 Calm 1.00 Fog/Mist NULL 55.4 55.4 100% 29.94 0.0
04 03:33 Calm 1.00 Fog/Mist NULL 55.4 55.4 100% 29.94 0.0
04 03:13 Calm 0.75 Fog/Mist VV005 57.2 57.2 100% 29.93 0.0
04 02:53 Calm 10.00 Fair CLR 59 57.2 94% 29.93 0.0
04 02:33 Calm 10.00 Fair CLR 59 59 100% 29.92 0.0
04 02:13 Calm 10.00 Fair CLR 59 59 100% 29.92 0.0
04 01:53 Calm 10.00 NULL NULL 60.8 59 94% 29.92 0.0
04 01:33 Calm 10.00 NULL NULL 60.8 60.8 100% 29.92 0.0
04 01:13 Calm 10.00 NULL NULL 60.8 59 94% 29.93 0.0
04 00:53 Calm 7.00 Thunderstorm Light Rain in Vicinity NULL 60.8 59 94% 29.94 0.0
04 00:33 Calm 10.00 Thunderstorm Light Rain in Vicinity NULL 60.8 60.8 100% 29.98 0.0
04 00:13 Calm 7.00 Thunderstorm Rain in Vicinity NULL 60.8 60.8 100% 29.95 0.0
03 23:53 Calm 4.00 Heavy Rain SCT017 SCT028 OVC100 60.8 60.8 100% 30.02 0.0
03 23:33 Calm 10.00 Thunderstorm in Vicinity OVC100 62.6 60.8 94% 29.99 0.0
03 23:13 Calm 10.00 Mostly Cloudy BKN100 60.8 60.8 100% 29.94 0.0
03 22:53 Calm 10.00 Partly Cloudy SCT016 SCT110 62.6 62.6 100% 29.93 0.0
03 22:33 Calm 10.00 NULL NULL 62.6 62.6 100% 29.92 0.0
03 22:13 S 3 10.00 NULL NULL 64.4 62.6 94% 29.9 0.0
03 21:53 Calm 10.00 Light Rain NULL 64.4 64.4 100% 29.86 0.0
03 21:33 E 3 7.00 Light Rain NULL 64.4 64.4 100% 29.88 0.0
03 21:13 E 5 4.00 Thunderstorm Heavy Rain in Vicinity NULL 64.4 64.4 100% 29.92 0.0
03 20:53 Calm 2.00 Thunderstorm Heavy Rain BKN025 OVC033 64.4 64.4 100% 30 0.0
03 20:33 Calm 4.00 Thunderstorm Rain SCT024 BKN033 OVC050 64.4 64.4 100% 30.02 0.0
03 20:13 N 6 3.00 Thunderstorm Heavy Rain in Vicinity NULL 64.4 64.4 100% 30.03 0.0
03 19:33 NW 5 10.00 Thunderstorm Light Rain OVC060 71.6 60.8 69% 29.97 0.0
03 19:13 Calm 10.00 Thunderstorm in Vicinity OVC060 71.6 62.6 73% 29.93 0.0
03 18:53 Calm 10.00 Overcast OVC060 71.6 62.6 73% 29.93 0.0
03 18:33 Calm 10.00 Overcast BKN060 OVC070 73.4 62.6 69% 29.93 0.0
03 18:13 Calm 10.00 Partly Cloudy SCT060 73.4 62.6 69% 29.91 0.0
03 17:53 Calm 10.00 Thunderstorm in Vicinity SCT060 75.2 62.6 65% 77 29.91 0.0
03 17:33 Calm 10.00 Mostly Cloudy BKN060 77 62.6 61% 79 29.91 0.0
03 17:13 Calm 10.00 Mostly Cloudy SCT060 BKN075 78.8 62.6 58% 80 29.91 0.0
03 16:53 Calm 10.00 Mostly Cloudy SCT060 BKN075 78.8 60.8 54% 80 29.91 0.0
03 16:33 Calm 10.00 Partly Cloudy SCT075 80.6 60.8 51% 81 29.91 0.0
03 16:13 Calm 10.00 Fair CLR 80.6 60.8 51% 81 29.92 0.0
03 15:53 Calm 10.00 Fair CLR 80.6 60.8 51% 81 29.91 0.0
03 15:33 Calm 10.00 Fair CLR 82.4 60.8 48% 83 29.91 0.0
03 15:13 Calm 10.00 Fair CLR 82.4 60.8 48% 83 29.92 0.0
03 14:53 Calm 10.00 Fair CLR 80.6 60.8 51% 81 29.92 0.0
03 14:33 S 5 10.00 Partly Cloudy SCT050 80.6 59 48% 81 29.93 0.0
03 14:13 NE 3 10.00 Fair CLR 80.6 59 48% 81 29.92 0.0
03 13:53 NE 3 10.00 Fair CLR 80.6 60.8 51% 81 29.92 0.0
03 13:33 E 3 10.00 Fair CLR 80.6 60.8 51% 81 29.93 0.0
03 13:13 Calm 10.00 Fair CLR 78.8 60.8 54% 80 29.93 0.0
03 12:53 E 5 10.00 Fair CLR 78.8 60.8 54% 80 29.95 0.0
03 12:33 SE 3 10.00 Fair CLR 78.8 60.8 54% 80 29.95 0.0
03 12:13 Calm 10.00 Partly Cloudy SCT041 75.2 62.6 65% 77 29.96 0.0
03 11:53 Calm 10.00 Partly Cloudy SCT039 77 62.6 61% 79 29.97 0.0
03 11:33 Calm 10.00 Partly Cloudy SCT035 75.2 62.6 65% 77 29.97 0.0
03 11:13 Calm 10.00 Fair CLR 73.4 62.6 69% 29.98 0.0
03 10:53 Calm 10.00 Fair CLR 73.4 62.6 69% 29.98 0.0
03 10:33 Calm 10.00 Fair CLR 71.6 62.6 73% 29.98 0.0
03 10:13 Calm 10.00 Fair CLR 69.8 64.4 83% 29.99 0.0
03 09:53 Calm 10.00 Fair CLR 68 62.6 83% 29.99 0.0
03 09:33 Calm 10.00 Fair CLR 66.2 62.6 88% 30 0.0
03 09:13 Calm 10.00 Fair CLR 62.6 62.6 100% 30 0.0
03 08:53 Calm 10.00 Fair CLR 60.8 60.8 100% 30 0.0
03 08:33 Calm 10.00 NULL NULL 57.2 57.2 100% 30 0.0
03 08:13 Calm 10.00 NULL NULL 55.4 55.4 100% 30.01 0.0
03 07:53 Calm 7.00 NULL NULL 50 50 100% 30.01 0.0
03 07:33 Calm 10.00 Fair CLR 48.2 48.2 100% 30 0.0
03 07:13 Calm 10.00 Fair CLR 48.2 48.2 100% 30 0.0
03 06:53 Calm 10.00 Partly Cloudy SCT001 46.4 46.4 100% 30 0.0
03 06:33 Calm 10.00 Overcast OVC001 46.4 46.4 100% 30 0.0
03 06:13 Calm 2.00 Fog/Mist BKN001 OVC006 46.4 46.4 100% 29.99 0.0
03 05:53 Calm 10.00 Partly Cloudy SCT001 46.4 46.4 100% 29.99 0.0
03 05:33 Calm 10.00 Fair CLR 46.4 46.4 100% 29.99 0.0
03 05:13 Calm 10.00 Fair CLR 48.2 48.2 100% 29.99 0.0
03 04:53 Calm 10.00 Fair CLR 48.2 48.2 100% 29.98 0.0
03 04:33 Calm 10.00 Fair CLR 48.2 48.2 100% 29.98 0.0
03 04:13 Calm 10.00 Fair CLR 48.2 48.2 100% 29.98 0.0
03 03:53 Calm 10.00 Fair CLR 48.2 48.2 100% 29.99 0.0
03 03:33 Calm 10.00 Fair CLR 48.2 48.2 100% 29.98 0.0
03 03:13 Calm 10.00 Fair CLR 48.2 48.2 100% 29.98 0.0
03 02:53 Calm 10.00 Fair CLR 50 48.2 94% 29.98 0.0
03 02:33 Calm 10.00 Fair CLR 50 50 100% 29.99 0.0
03 02:13 Calm 10.00 Fair CLR 51.8 51.8 100% 29.99 0.0
03 01:53 Calm 10.00 Fair CLR 51.8 51.8 100% 29.99 0.0
03 01:33 Calm 10.00 Fair CLR 51.8 51.8 100% 29.99 0.0
03 01:13 Calm 10.00 Fair CLR 51.8 51.8 100% 29.99 0.0
03 00:53 Calm 10.00 Fair CLR 51.8 51.8 100% 29.99 0.0
03 00:33 Calm 10.00 Fair CLR 53.6 53.6 100% 29.99 0.0
03 00:13 Calm 10.00 Fair CLR 53.6 53.6 100% 29.99 0.0
02 23:53 Calm 10.00 Fair CLR 53.6 53.6 100% 29.99 0.0
02 23:33 Calm 10.00 Fair CLR 53.6 53.6 100% 29.99 0.0
02 23:13 Calm 10.00 Fair CLR 55.4 55.4 100% 29.99 0.0
02 22:53 Calm 10.00 Fair CLR 55.4 55.4 100% 29.99 0.0
02 22:33 Calm 10.00 NULL NULL 55.4 55.4 100% 29.99 0.0
02 22:13 Calm 10.00 NULL NULL 57.2 57.2 100% 29.98 0.0
Date Time (cdt) Wind (mph) Vis. (mi.) Weather Sky Cond. Air Dwpt Max. Min. Relative Humidity Wind Chill (°F) Heat Index (°F) altimeter (in) sea level (mb) 1 hr 3 hr 6 hr
6 hour
Temperature (ºF) Pressure Precipitation (in)